Satellite-Ground Cal/Val Region Overpasses Predictions

Prediction of Satellite NPP Overpassing Cal/Val Region: PacNW

Region Location: (Latitude: 10.00, Longitude: 139.50) to (Latitude: 22.70, Longitude: 165.60).

Table of predicted overpasses for the next 14.0 days since TLE Epoch: 3/10/2018
Interval Starting Time Starting Location Ending Time Ending Location
1 03/11/2018 03:23:21 ( 10.06, 148.83) 03/11/2018 03:26:56 ( 22.68, 145.83)
2 03/11/2018 15:55:13 ( 22.66, 146.07) 03/11/2018 15:58:48 ( 10.04, 143.07)
3 03/12/2018 03:04:19 ( 10.05, 153.59) 03/12/2018 03:07:54 ( 22.68, 150.58)
4 03/12/2018 15:36:12 ( 22.67, 150.83) 03/12/2018 15:39:47 ( 10.04, 147.82)
5 03/13/2018 02:45:18 ( 10.05, 158.34) 03/13/2018 02:48:53 ( 22.67, 155.34)
6 03/13/2018 15:17:10 ( 22.67, 155.58) 03/13/2018 15:20:45 ( 10.05, 152.58)
7 03/14/2018 02:26:16 ( 10.05, 163.10) 03/14/2018 02:29:51 ( 22.67, 160.10)
8 03/14/2018 14:58:09 ( 22.67, 160.34) 03/14/2018 15:01:44 ( 10.05, 157.34)
9 03/15/2018 02:09:59 ( 19.68, 165.59) 03/15/2018 02:10:50 ( 22.67, 164.85)
10 03/15/2018 03:48:45 ( 10.05, 142.48) 03/15/2018 03:52:18 ( 22.55, 139.51)
11 03/15/2018 14:39:08 ( 22.67, 165.10) 03/15/2018 14:42:43 ( 10.05, 162.09)
12 03/15/2018 16:20:37 ( 22.67, 139.72) 03/15/2018 16:20:52 ( 21.79, 139.50)
13 03/16/2018 03:29:43 ( 10.05, 147.24) 03/16/2018 03:33:18 ( 22.67, 144.23)
14 03/16/2018 16:01:36 ( 22.67, 144.48) 03/16/2018 16:05:11 ( 10.05, 141.47)
15 03/17/2018 03:10:42 ( 10.05, 151.99) 03/17/2018 03:14:17 ( 22.67, 148.99)
16 03/17/2018 15:42:35 ( 22.67, 149.23) 03/17/2018 15:46:10 ( 10.05, 146.23)
17 03/18/2018 02:51:40 ( 10.04, 156.75) 03/18/2018 02:55:15 ( 22.67, 153.75)
18 03/18/2018 15:23:33 ( 22.67, 153.99) 03/18/2018 15:27:08 ( 10.05, 150.99)
19 03/19/2018 02:32:39 ( 10.04, 161.51) 03/19/2018 02:36:14 ( 22.67, 158.50)
20 03/19/2018 15:04:32 ( 22.67, 158.75) 03/19/2018 15:08:07 ( 10.05, 155.74)
21 03/20/2018 02:14:26 ( 12.92, 165.60) 03/20/2018 02:17:12 ( 22.67, 163.26)
22 03/20/2018 03:55:07 ( 10.05, 140.89) 03/20/2018 03:56:48 ( 15.98, 139.51)
23 03/20/2018 14:45:30 ( 22.68, 163.50) 03/20/2018 14:49:05 ( 10.06, 160.50)
24 03/21/2018 03:36:06 ( 10.05, 145.64) 03/21/2018 03:39:41 ( 22.67, 142.64)
25 03/21/2018 14:29:39 ( 11.52, 165.59) 03/21/2018 14:30:04 ( 10.06, 165.25)
26 03/21/2018 16:07:59 ( 22.67, 142.88) 03/21/2018 16:11:34 ( 10.05, 139.88)
27 03/22/2018 03:17:04 ( 10.05, 150.40) 03/22/2018 03:20:39 ( 22.67, 147.40)
28 03/22/2018 15:48:57 ( 22.67, 147.64) 03/22/2018 15:52:32 ( 10.05, 144.64)
29 03/23/2018 02:58:03 ( 10.05, 155.15) 03/23/2018 03:01:38 ( 22.67, 152.15)
30 03/23/2018 15:29:56 ( 22.67, 152.39) 03/23/2018 15:33:31 ( 10.05, 149.39)
31 03/24/2018 02:39:02 ( 10.05, 159.91) 03/24/2018 02:42:37 ( 22.67, 156.91)


NCC Satellite Cal/Val Overpasses Prediction Service
